Погода Петропавловск-Камч.

Погода Петропавловск-Камч. : погода сейчас, прогноз погоды и архив. Всё, что Вы хотите узнать о погоде Петропавловск-Камч.!

Хотите узнать прогноз погоды Петропавловск-Камч.? Тогда Вам сюда: Погода Петропавловск-Камч.

Поиск расширенной информации на нашем сайте:

Другие новости

Новости СМИ2

Главная страница сайта

Новости сайта

03.07.2017

Напоминаем, что на нашем специализированном сайте Метеоцентр.Азия вы можете получить высокодетализированные автоматические прогнозы погоды по пунктам России, СНГ и мира в авиационном формате (включающие направление и скорость ветра, видимость, явления погоды, количество и форму облачности, нижнюю и верхнюю границу облачности).


Погода Петропавловск-Камч. - сегодня

Время (UTC), дата Ветер
(°,м/с) 
Видим.   Явления Облачность Т
(°С)
Тd
(°С)
f(%) Тe
(°С)
Pmin
(гПа)
dP
(гПа)
Po
(мм)
O2
(г/м3)
Тmin Tmax R s Состояние
почвы
21 13.08.18 140 (ЮВ) 6-11{11}  10 км  слаб. ливневой дождь  10/10 200 м кучево-дожд. 
[Cb cap]
+12.8 +10.2 84 +13  1017.9  0.4  761  291  +12.1    0.0     
12 14.08.18 140 (ЮВ) 4000 м  ливневой дождь  10/10 300 м кучево-дожд. 
[Cb cap]
+11.6 +10.5 93 +13  1017.9  -0.2  761  292           
15 14.08.18 140 (ЮВ) 4000 м  слаб. ливневой дождь  10/10 200 м кучево-дожд. 
[Cb cap]
+11.1 +9.8 92 +12  1017.5  -0.4  761  293           
21 14.08.18 070 (В) 5-15{15}  10 км  слаб. ливневой дождь  10/10 600 м кучево-дожд. 
[Cb cap]
+12.2 +8.3 77 +11  1016.3  -0.9  760  292  +10.7    13     
03 15.08.18 тихо ()   20000 м  слаб. ливневой дождь  10/10 200 м кучево-дожд. 
[Cb cap]
+13.2 +11 87 +15  1015.1  -1.4  759  290           
06 15.08.18 010 (С) 10 км  ливневой дождь  10/10 200 м кучево-дожд. 
[Cb cap]
+12.7 +11 89 +16  1014.7  -0.4  759  290           
12 15.08.18 360 (С) 10 км  слаб. ливневой дождь  10/10 300 м кучево-дожд. 
[Cb cap]
+11.7 +10.6 93 +15  1014.2  -0.6  758  291           
15 15.08.18 020 (С) 10 км  слаб. ливневой дождь  10/10 300 м кучево-дожд. 
[Cb cap]
+11.3 +10.1 92 +13  1013.5  -0.7  758  291           
18 15.08.18 010 (С) 20000 м  слаб. ливневой дождь  10/10 600 м кучево-дожд. 
[Cb cap]
+11 +7.9 81 +10  1012.8  -0.7  757  292           
21 15.08.18 350 (С) 20000 м  {ливн. осадки}  10/10 100 м 
[Sc]
+12.3 +9 80 +12  1012.3  -0.5  757  290  +10.9       
00 16.08.18 320 (СЗ) 20000 м  {ливн. осадки}  10/10 600 м 
[Sc]
+15.7 +11.3 75 +19  1010.6  -1.6  756  286           
03 16.08.18 320 (СЗ) 20000 м    10/10 600 м 
[Sc]
+15.5 +9.9 69 +18  1009.7  -1  755  286           
06 16.08.18 360 (С) 20000 м  в посл. час ливневой дождь  10/10 600 м 
[Sc]
+15.8 +9.2 65 +17  1009.3  -0.3  755  286           
09 16.08.18 170 (Ю) 20000 м  в посл. час ливневой дождь  10/10 600 м 
[Sc]
+12.9 +9.4 79 +14  1010.2  0.8  755  289           
12 16.08.18 020 (С) 20000 м  {ливн. осадки}  10/10 600 м 
[Sc]
+12.3 +8.3 77 +14  1011.3  1.1  756  290           
15 16.08.18 320 (СЗ) 20000 м    3/3 600 м 
[Sc]
+11.2 +7.6 78 +11  1011.1  -0.3  756  291           
18 16.08.18 340 (С) 20000 м    9/9 600 м 
[Sc]
+11.3 +7.5 77 +12  1011.3  0.2  756  291           
00 17.08.18 тихо ()   20000 м    9/8 600 м средняя, верхняя 
[Sc|Ac trans|Ci fib]
+15.5 +8.3 62 +16  1012.3  0.6  757  287           
03 17.08.18 тихо ()   20000 м  {ливн. осадки}  9/9 600 м 
[Sc]
+15.6 +10 69 +17  1012.7  0.4  757  287           
06 17.08.18 140 (ЮВ) 20000 м  {ливн. осадки}  9/8 600 м средняя, верхняя 
[Sc|Ac trans|Ci fib]
+14.6 +9.6 72 +15  1013.7  1.1  758  288           
12 17.08.18 130 (ЮВ) 20000 м    9/3 600 м средняя 
[Sc|Ac trans]
+11.8 +7.3 74 +11  1016.5  0.4  760  292           
15 17.08.18 120 (ЮВ) 20000 м    9/9 600 м 
[Sc]
+11.6 +6.1 69 +12  1017.3  0.7  761  293           
18 17.08.18 110 (В) 20000 м    9/4 600 м средняя, верхняя 
[Sc|Ac trans|Ci fib]
+11.4 +6.2 70 +11  1016.1  -1.1  760  293           
21 17.08.18 100 (В) 3{10}  20000 м    10/8 600 м средняя 
[Sc|Ac trans]
+12.1 +6.6 69 +12  1017.5  1.4  761  293  +11.4         
09 18.08.18 100 (В) 4-12{17}  20000 м  слаб. ливневой дождь  10/10 600 м кучево-дожд. 
[Cb cap]
+11.4 +7.5 77 +11  1010.9  -1.8  756  291    +12.5     
Время (UTC), дата Ветер
(°,м/с) 
Видим.   Явления Облачность Т
(°С)
Тd
(°С)
f(%) Тe
(°С)
Pmin
(гПа)
dP
(гПа)
Po
(мм)
O2
(г/м3)
Тmin Tmax R s Состояние
почвы

Для получения пояснительной информации подведите курсор к названию столбца.

ПОГОДА Петропавловск-Камч. - архив

Всё, что Вы хотите узнать о погоде Петропавловск-Камч. - удобно и подробно!

Выберите нужную дату (начиная с 1 января 2015* года) и нажмите кнопку "Найти".
Будут отображены архивные сводки погоды по пункту Петропавловск-Камч., начиная с указанной даты.


Отображать данные в формате CSV (для использования в таблицах Excel)


Внимание! Наш архив погоды предназначен исключительно для личного некоммерческого использования в познавательных целях. Если Вам необходимы официальные справки о состоянии погоды (для производственных, юридических, коммерческих и т.п. целей), обращайтесь в органы Росгидромета.

*Примечание: данная дата относится к архиву по метеостанциям СССР (Россия, СНГ, Балтия).
Архив по метеостанциям Зарубежной Европы и Азии (кроме Китая) хранится 10 дней, по другим регионам земного шара (Китай, Африка, Америка, Австралия, Океания) - 1 день.

Петропавловск-Камч. - район местоположения метеостанции


Название, широта, долгота, высота метеостанции:
Петропавловск-Камч. (обсерватория) 53°ш. 158.6°д. 24 м над ур. моря [Российская Федерация]

Дополнительная информация

В oтличие oт бoльшинства пoгoдных сайтoв мы публикуем пoдрoбную метеoинфoрмацию в детальнoм прoфессиoнальнoм фoрмате.

Характеристики температуры и влажнoсти вoздуха измеряются на высoте 2 м в тени вдали oт зданий и деревьев.
Скoрoсть ветра измеряется на высoте 10 м (на урoвне рoста челoвека скoрoсть ветра ниже в 1.5-2 раза). Если метеoстанция нахoдится в гoрoде или в лесу, тo скoрoсть ветра занижена на 2-4 м/с пo сравнению с oткрытым местoм. Скoрoсть ветра над акватoриями крупных рек и oзёр, а также на вершинах хoлмoв на 2-5 м/с выше, чем в oбычных услoвиях.
Атмoсфернoе давление в разных тoчках местнoсти мoжет значительнo oтличаться oт давления на метеoстанции, в зависимoсти oт услoвий рельефа (при пoдъёме на 10 м давление пoнижается примернo на 1 мм рт.ст.).